Wind_Speed
27 23 14 16 22 20 20 19 17 23 14 14 14 16 13 5 2 12 11 9 10 9 10 8 10 8 7 7 2 4 4 4 10 9 13 20 21 19 15 15 19 20 20 19
30 17 19 21 24 23 20 17 18 23 18 16 15 11 13 6 3 9 8 2 2 3 9 10 9 8 8 8 9 11 13 15 15 12 9 8 12 13 15 19 19 17 18 18
31 18 28 24 23 23 18 16 20 22 21 21 18 10 17 16 10 4 3 4 0 3 3 4 7 7 5 8 8 8 11 13 12 11 10 11 10 11 12 10 11 12 14 14
36 23 27 26 21 23 18 16 21 20 23 23 21 15 17 16 9 5 4 2 1 2 2 2 2 4 6 7 9 7 8 8 9 10 10 12 11 10 9 9 8 9 10 10
30 25 27 28 16 25 14 22 23 21 23 22 18 24 18 20 15 7 5 5 7 5 2 6 7 5 4 5 6 7 6 4 5 6 7 8 7 6 6 6 8 9 9 11
34 30 32 27 24 23 23 26 24 23 24 19 14 26 19 21 17 9 5 5 7 8 7 6 10 6 5 4 4 4 4 5 7 6 6 8 6 6 7 10 10 10 13 13
32 29 29 31 29 27 31 27 24 25 24 10 16 16 14 19 19 17 5 5 6 4 6 8 10 8 6 6 4 5 6 6 6 5 6 7 8 7 7 8 10 10 12 16
34 33 31 27 27 27 32 27 26 27 25 18 20 15 12 18 18 18 8 6 4 7 5 5 8 10 9 7 7 7 9 10 10 10 12 10 10 6 7 7 9 11 14 13
30 32 26 31 29 27 31 31 17 27 29 27 24 20 22 17 17 17 12 12 8 8 4 4 9 12 13 11 12 13 15 16 15 15 17 15 14 12 15 15 14 18 17 23
32 34 27 29 31 33 35 25 30 34 32 29 23 20 22 17 13 15 14 10 9 10 8 9 7 10 11 13 15 16 17 17 19 19 18 16 19 21 19 22 23 21 22 24
35 34 31 33 39 36 34 34 37 34 37 32 24 24 22 22 18 16 19 16 17 15 14 13 12 11 13 16 16 17 18 21 22 24 24 26 25 25 27 28 26 26 27 26
40 33 37 35 35 36 35 39 34 35 36 33 30 26 24 24 25 23 22 21 19 19 18 16 14 14 15 14 14 15 20 26 26 28 31 30 33 32 31 35 36 36 43 19
39 42 41 39 39 40 43 40 41 36 37 39 36 29 22 26 29 25 22 18 20 17 20 26 23 16 15 16 16 18 22 25 28 28 35 31 34 45 24 24 24 25 22 25
41 48 47 44 38 39 41 36 39 40 44 38 36 31 29 25 30 27 27 28 30 22 13 18 23 20 16 16 19 20 22 24 29 25 21 26 28 18 23 21 25 27 25 26
39 43 45 46 41 39 42 39 42 44 44 42 32 31 24 28 31 29 30 28 31 29 18 16 25 21 23 25 25 26 26 26 24 24 23 23 24 27 25 24 28 29 30 29
45 42 44 46 42 39 45 48 43 42 42 43 38 37 25 26 27 38 35 32 31 33 34 27 28 26 24 27 31 32 28 25 26 26 27 27 26 28 25 28 31 32 33 33
37 40 43 46 43 40 50 49 47 44 43 44 45 36 29 39 26 30 35 37 41 37 36 34 29 28 31 35 31 28 27 28 25 29 31 32 34 31 30 34 35 37 37 38
55 35 50 46 42 49 43 44 47 49 44 38 38 33 28 34 35 30 30 32 37 35 36 33 29 24 23 19 20 21 25 28 30 30 31 33 33 34 37 39 39 39 40 40
62 58 33 49 51 49 49 46 45 47 49 40 40 37 34 30 31 34 30 32 34 34 36 30 29 24 21 23 24 25 26 29 30 32 33 34 35 36 39 41 42 43 43 42
68 56 48 31 39 58 47 53 44 47 51 49 45 44 36 34 36 38 37 36 39 37 39 30 24 26 24 23 26 28 29 31 32 32 33 35 36 37 38 40 42 43 43 43
60 60 61 44 40 47 47 50 50 49 42 48 50 52 42 43 41 38 40 42 44 45 41 32 33 34 31 31 32 32 33 33 33 34 35 35 36 37 39 41 43 43 44 46
52 50 55 56 35 50 51 43 43 42 47 45 46 52 48 44 46 42 40 42 41 45 41 39 38 38 37 37 36 38 39 38 38 39 39 39 39 40 41 43 43 45 47 48
53 46 36 47 23 26 46 42 39 36 35 39 38 49 47 48 41 43 40 42 43 44 42 36 35 37 39 41 42 42 40 39 39 39 40 42 43 44 44 44 45 47 48 51
49 49 32 48 23 14 23 37 31 36 33 34 40 43 44 50 46 41 39 38 39 42 40 40 41 39 39 40 43 43 42 42 41 40 41 42 43 45 46 47 49 50 52 54
42 53 49 41 35 31 35 28 35 41 43 46 38 38 41 50 49 48 45 43 42 38 38 37 40 39 39 38 39 41 43 42 42 41 41 42 43 45 48 51 53 55 57 59
36 39 37 43 45 44 43 33 29 40 43 40 43 42 38 45 50 46 44 45 42 43 47 48 46 44 42 42 41 40 41 42 43 44 45 46 48 50 52 54 57 59 60 63
Wind_Direction
264 271 296 263 270 264 267 274 290 282 277 267 283 296 301 273 34 360 356 2 341 8 61 115 118 157 171 152 218 78 69 147 217 236 247 244 238 234 218 215 218 202 170 151
258 274 257 257 272 265 256 259 278 272 282 267 261 272 283 297 271 338 314 332 284 317 80 94 131 141 173 139 127 112 101 98 104 119 123 112 116 123 137 161 163 156 158 157
256 250 260 266 271 272 248 242 256 272 270 266 263 249 266 277 276 334 285 280 195 250 65 111 165 168 151 152 134 129 120 118 119 121 123 125 137 141 161 165 156 165 182 183
251 245 258 269 272 272 260 245 255 269 272 265 249 239 251 272 278 292 193 46 282 288 205 200 106 144 158 144 139 147 142 132 125 129 128 125 132 150 169 167 151 181 175 192
257 248 257 260 268 260 241 241 254 258 265 275 270 265 229 258 271 278 236 266 288 299 228 245 172 175 184 165 160 154 157 158 158 158 155 157 155 162 175 181 185 186 189 207
247 240 247 256 253 254 236 238 249 258 257 269 281 254 207 231 266 290 275 225 271 299 267 226 228 225 268 238 219 211 217 204 204 194 187 196 208 205 207 210 214 213 211 214
254 253 252 252 255 253 238 239 244 256 260 244 253 239 190 218 251 263 102 143 205 289 267 206 227 265 269 252 249 264 275 280 275 264 246 232 230 209 201 227 235 243 232 226
243 245 245 257 259 262 250 240 238 253 253 238 236 241 228 223 244 244 195 232 263 156 221 249 240 255 259 248 272 279 289 292 286 278 267 249 250 242 217 243 251 240 264 260
245 246 242 242 244 245 249 234 238 248 252 243 226 244 238 244 260 248 244 238 228 191 163 217 254 248 257 269 275 284 285 294 298 283 274 273 264 234 242 244 242 243 246 255
243 242 233 234 239 241 242 228 230 241 247 254 235 227 241 235 249 270 276 230 234 225 268 281 263 258 261 262 264 272 280 285 286 288 280 271 262 253 247 248 259 251 255 257
240 238 228 225 235 236 241 225 223 233 244 246 247 230 239 248 247 249 255 275 273 257 241 253 257 261 264 258 258 273 277 277 277 274 270 258 258 260 258 257 261 271 248 261
227 236 240 236 230 238 238 232 230 239 242 252 252 237 246 242 241 246 257 258 265 246 263 266 255 256 265 265 269 278 274 265 265 263 259 257 256 252 260 267 263 271 257 284
218 222 228 228 228 229 232 231 227 232 239 238 246 241 239 252 246 246 253 250 232 258 270 275 278 272 252 254 269 279 285 289 285 287 269 288 294 249 256 281 293 301 301 303
217 225 224 231 239 233 240 236 226 227 241 239 242 251 246 246 254 247 251 253 265 261 250 284 283 281 264 249 281 283 287 286 289 286 287 288 302 297 262 286 295 297 295 297
222 231 231 227 233 230 234 234 225 226 236 243 250 250 249 252 245 242 252 256 255 267 263 258 261 265 268 274 280 282 284 281 281 286 287 289 295 295 289 296 293 293 295 293
224 230 229 231 228 224 228 227 227 235 237 241 246 239 242 243 240 244 237 243 255 261 268 266 256 258 256 271 278 283 285 282 288 292 293 292 289 287 293 290 289 291 292 290
222 230 226 227 233 225 225 228 228 235 232 236 242 245 241 242 240 247 249 249 257 261 269 264 264 271 264 259 270 273 278 283 283 291 292 290 288 290 290 285 283 283 284 284
236 224 226 231 234 232 232 228 232 233 234 235 238 238 240 229 236 237 239 241 255 260 262 269 273 270 262 258 253 255 268 278 285 290 290 288 288 286 282 281 279 280 283 286
233 239 239 234 237 243 239 239 235 234 232 227 237 244 242 241 242 247 243 249 254 267 274 274 273 261 260 262 262 265 271 278 282 286 288 289 289 285 282 283 284 286 288 288
239 244 242 239 235 240 247 242 241 235 241 236 236 243 226 232 244 250 256 257 260 268 270 272 264 263 260 260 268 269 273 276 279 284 285 286 284 282 282 280 280 282 283 284
236 239 240 251 225 235 239 240 241 235 241 234 234 236 237 238 242 248 260 267 270 267 267 267 273 273 272 273 273 275 277 281 283 282 281 280 280 279 279 279 279 281 282 282
234 241 240 240 260 238 236 243 243 238 241 234 234 243 241 243 243 246 253 257 262 263 261 264 265 265 270 273 274 273 275 279 280 281 281 280 277 276 276 277 279 279 279 280
236 239 253 240 245 212 228 233 241 250 244 234 236 238 241 242 240 244 249 251 257 263 263 261 262 266 268 268 270 271 274 277 278 280 279 278 279 276 275 275 275 276 276 278
237 231 246 240 237 259 241 234 236 235 236 242 239 236 237 242 247 239 246 253 254 255 264 265 268 266 272 273 273 273 274 274 275 276 277 277 277 277 277 276 276 276 278 281
239 238 243 235 254 264 270 271 252 246 243 246 248 247 248 243 240 245 241 247 250 261 260 266 268 274 278 279 278 277 275 273 273 275 277 277 278 278 278 277 278 280 278 281
240 242 249 250 256 258 262 263 262 245 247 237 248 243 263 238 240 249 248 251 252 257 262 266 269 273 277 281 281 279 277 276 276 276 276 278 279 279 279 280 281 282 283 283
Height
5756 5758 5761 5759 5758 5758 5756 5754 5755 5756 5748 5747 5749 5747 5748 5750 5748 5746 5744 5744 5742 5738 5733 5734 5737 5739 5739 5736 5735 5733 5732 5731 5732 5733 5735 5736 5738 5740 5741 5742 5746 5748 5750 5751
5749 5757 5753 5752 5752 5753 5752 5752 5752 5752 5746 5744 5745 5744 5743 5747 5747 5743 5742 5743 5743 5740 5735 5735 5737 5738 5740 5739 5737 5736 5734 5733 5734 5737 5737 5733 5737 5740 5741 5747 5748 5747 5750 5751
5742 5751 5745 5747 5747 5746 5747 5748 5748 5745 5742 5740 5741 5742 5740 5743 5744 5740 5741 5741 5742 5741 5736 5737 5738 5738 5740 5740 5739 5739 5738 5738 5738 5738 5740 5740 5741 5742 5747 5747 5747 5748 5750 5751
5732 5741 5739 5740 5743 5741 5742 5742 5742 5741 5739 5736 5737 5738 5735 5739 5740 5740 5739 5739 5740 5741 5736 5737 5739 5738 5738 5739 5739 5740 5739 5739 5739 5741 5742 5741 5743 5744 5745 5745 5743 5746 5747 5748
5729 5733 5733 5732 5740 5735 5741 5737 5738 5737 5734 5732 5734 5733 5735 5734 5735 5737 5739 5739 5738 5738 5736 5736 5737 5737 5737 5736 5738 5739 5740 5740 5740 5741 5741 5741 5742 5742 5743 5742 5744 5745 5743 5747
5718 5724 5724 5728 5730 5732 5734 5732 5733 5734 5732 5731 5731 5727 5727 5728 5732 5732 5735 5735 5736 5736 5734 5735 5736 5735 5735 5736 5736 5737 5737 5738 5740 5740 5740 5739 5740 5740 5741 5741 5741 5741 5743 5743
5713 5716 5719 5719 5724 5726 5726 5725 5727 5728 5727 5728 5725 5724 5726 5725 5729 5730 5730 5730 5732 5733 5731 5733 5734 5734 5735 5735 5735 5735 5736 5736 5737 5737 5737 5737 5737 5738 5738 5738 5737 5739 5740 5740
5703 5707 5710 5716 5716 5721 5720 5720 5721 5721 5722 5724 5721 5722 5725 5722 5724 5725 5725 5727 5728 5730 5729 5729 5732 5733 5733 5733 5733 5733 5733 5733 5734 5733 5733 5733 5733 5733 5733 5734 5734 5735 5734 5736
5696 5697 5706 5705 5708 5713 5713 5710 5719 5715 5715 5716 5716 5718 5720 5719 5718 5720 5720 5723 5726 5727 5727 5727 5728 5730 5731 5729 5729 5730 5730 5731 5731 5730 5730 5731 5730 5730 5730 5731 5731 5731 5732 5731
5686 5688 5695 5698 5699 5702 5704 5709 5709 5707 5709 5709 5712 5713 5714 5715 5715 5717 5719 5721 5723 5724 5723 5726 5726 5726 5727 5726 5726 5725 5726 5727 5727 5727 5728 5727 5725 5723 5725 5726 5726 5725 5723 5724
5676 5678 5685 5687 5686 5691 5698 5697 5698 5703 5702 5704 5706 5708 5711 5711 5712 5714 5715 5716 5718 5719 5722 5723 5724 5724 5723 5722 5721 5721 5722 5721 5721 5722 5721 5718 5718 5719 5718 5718 5718 5717 5712 5716
5662 5668 5671 5679 5683 5686 5690 5691 5693 5694 5698 5699 5698 5702 5705 5708 5708 5709 5710 5712 5713 5715 5714 5717 5720 5720 5718 5717 5717 5719 5717 5715 5715 5714 5711 5712 5711 5711 5711 5710 5709 5696 5708 5702
5652 5654 5658 5665 5671 5674 5673 5680 5685 5687 5691 5689 5692 5695 5700 5700 5702 5704 5705 5706 5709 5710 5710 5708 5709 5713 5712 5713 5714 5714 5713 5712 5709 5709 5704 5705 5703 5702 5702 5703 5700 5701 5701 5703
5638 5644 5649 5655 5665 5668 5669 5674 5678 5681 5680 5684 5684 5689 5692 5696 5695 5698 5698 5699 5700 5704 5707 5705 5702 5706 5708 5709 5708 5708 5708 5706 5703 5700 5700 5701 5697 5692 5697 5695 5696 5695 5696 5696
5633 5638 5643 5646 5651 5659 5661 5665 5670 5671 5675 5675 5682 5682 5685 5688 5691 5693 5692 5693 5693 5694 5699 5702 5698 5699 5699 5699 5699 5699 5700 5698 5697 5696 5695 5694 5691 5691 5690 5687 5689 5687 5687 5685
5627 5633 5634 5638 5640 5647 5649 5654 5659 5664 5666 5668 5671 5673 5679 5680 5681 5682 5683 5685 5684 5686 5690 5694 5694 5696 5694 5693 5691 5688 5690 5689 5687 5688 5687 5687 5687 5685 5680 5682 5682 5679 5678 5676
5617 5623 5623 5628 5633 5637 5637 5641 5648 5654 5657 5661 5662 5668 5673 5672 5673 5675 5676 5677 5678 5681 5682 5683 5684 5689 5687 5686 5686 5683 5681 5681 5681 5680 5678 5677 5676 5674 5672 5673 5672 5671 5669 5667
5608 5611 5616 5623 5624 5622 5635 5636 5641 5645 5650 5655 5656 5658 5662 5663 5666 5667 5669 5670 5671 5673 5674 5675 5676 5677 5677 5677 5678 5678 5677 5675 5673 5673 5672 5669 5667 5666 5666 5666 5664 5662 5659 5657
5595 5598 5607 5612 5614 5622 5623 5628 5633 5636 5643 5646 5649 5653 5654 5658 5658 5660 5662 5665 5664 5664 5665 5667 5667 5667 5669 5670 5670 5670 5669 5668 5667 5665 5663 5661 5659 5658 5656 5655 5653 5650 5648 5646
5584 5590 5594 5599 5603 5606 5620 5620 5624 5629 5630 5639 5641 5642 5643 5646 5649 5652 5655 5658 5657 5657 5657 5658 5659 5659 5659 5660 5660 5661 5661 5660 5659 5657 5655 5653 5652 5650 5649 5646 5643 5641 5639 5637
5575 5579 5585 5589 5590 5598 5602 5607 5614 5615 5625 5626 5628 5629 5637 5639 5641 5643 5645 5647 5648 5649 5650 5651 5651 5650 5650 5650 5650 5650 5649 5649 5649 5647 5645 5644 5642 5640 5637 5635 5632 5630 5628 5625
5566 5571 5579 5580 5586 5589 5592 5599 5603 5608 5609 5617 5623 5622 5629 5629 5630 5632 5636 5638 5640 5640 5641 5643 5643 5643 5642 5642 5641 5640 5640 5640 5639 5637 5635 5633 5631 5629 5626 5624 5622 5620 5617 5614
5559 5568 5569 5574 5578 5577 5586 5588 5596 5599 5601 5605 5610 5612 5616 5618 5619 5624 5628 5629 5631 5631 5631 5632 5633 5632 5633 5632 5631 5631 5630 5629 5627 5626 5624 5623 5621 5618 5616 5613 5611 5608 5605 5601
5551 5558 5558 5566 5571 5570 5576 5581 5586 5590 5591 5594 5595 5601 5605 5609 5611 5613 5617 5618 5620 5620 5621 5623 5623 5622 5621 5620 5620 5619 5618 5615 5614 5612 5611 5610 5607 5605 5603 5600 5597 5593 5590 5587
5546 5551 5555 5557 5560 5565 5568 5573 5578 5580 5582 5584 5587 5593 5596 5598 5599 5600 5603 5606 5609 5611 5611 5611 5611 5611 5611 5611 5609 5608 5606 5604 5602 5600 5599 5596 5594 5591 5588 5585 5581 5577 5574 5570
5535 5540 5546 5550 5553 5557 5562 5567 5568 5571 5573 5574 5579 5583 5585 5587 5589 5592 5594 5596 5597 5598 5599 5598 5599 5600 5600 5599 5598 5597 5594 5591 5589 5586 5584 5582 5579 5576 5572 5569 5565 5561 5556 5551